Location: Arborea
(39.7744°N, 8.5819°E)
Time: 12:46:58
(UTC+00:00)

Cosmos 2333 Rocket - Pass Details

Date: 24 October 2021
Orbit: 837 x 865 km, 70.8° (Epoch: 07 December)

Event Time Altitude Azimuth Distance (km) Brightness Sun altitude
Rises 18:18:22 0° 189° (S) 3,377 5.4 -20.8°
Reaches altitude 10° 18:20:50 10° 185° (S) 2,450 4.6 -21.2°
Maximum altitude 18:26:18 56° 108° (ESE) 1,002 2.2 -22.3°
Enters shadow 18:27:31 46° 65° (ENE) 1,121 2.4 -22.5°
